Other Public Products
Issued by NWS Charleston, SC

Current Version | Previous Version | Text Only | Print | Product List | Glossary Off
Versions: 1 2 3 4 5 6 7 8 9 10 11 12 13 14 15 16 17 18 19 20 21 22 23 24 25 26 27 28 29 30 31 32 33 34 35 36 37 38 39 40 41 42 43 44 45 46 47 48 49 50

000
FPUS82 KCHS 151612
OPUCHS

TEST...KCHS/KSAV Gateway Observations...TEST
National Weather Service Charleston SC
1200 PM EDT TUE AUG 15 2017

NOTE: "fair" indicates few or no clouds below 12,000 feet with no
significant weather and/or obstructions to visibility.

SCZ050-WAZ558-NCZ071-TXZ119-213-PAZ071-DCZ001-FLZ074-172-MI076-
NYZ176-178-MAZ016-IL014-TNZ027-NJZ106-GAZ044-MD014-151700-

...Gateway Observations for Charleston International...

CITY           SKY/WX    TMP DP  RH WIND       PRES   REMARKS
Chas Airport   PTSUNNY   82  76  81 W8        29.93F
Seattle        MOSUNNY   63  50  62 N6        29.98R
Charlotte      CLOUDY    80  76  87 NW5       29.96R
Dallas DFW     CLOUDY    84  74  71 S9        29.88R HX  91
Dallas Love    CLOUDY    86  73  65 SW8       29.89R HX  93
Philladelphia  CLOUDY    76  72  87 E5        29.92R
Wash National  LGT RAIN  77  76  96 S5        29.90F
Baltimore      LGT RAIN  75  75 100 CALM      29.89F FOG
Miami          LGT RAIN  85  75  72 SE12      30.06R HX  93
Detroit        PTSUNNY   73  67  81 VRB3      29.92R
Newark         CLOUDY    74  68  81 SE7       29.92F
Laguardia      CLOUDY    75  70  84 VRB6      29.92S
J F K          CLOUDY    74  71  91 SE9       29.93F
Boston Logan   CLOUDY    78  66  66 S10       29.91F
Ft. Lauderdale MOSUNNY   88  75  65 NE5       30.03S HX  97
Chicago O`Hare PTSUNNY   80  62  54 NE5       29.92R
Chicago Midway PTSUNNY   81  65  58 N6        29.91R
Houston Bush   PTSUNNY   90  72  55 SW12G17   29.93R HX  97
Houston Hobby  MOSUNNY   91  74  57 SW14      29.92R HX 100
Nashville      PTSUNNY   81  70  69 SW5       29.99R
Atlanta        PTSUNNY   85  75  72 W10       30.01S HX  93

$$

GAZ044-118-TXZ119-213-NCZ071-DCZ001-MDZ014-506-PAZ021-071-NJZ106-
NYZ176-178-MAZ106-OHZ011-021-055-MIZ076-KYZ091-ILZ014-INZ047-
MNZ060-ONZ431-151700-

...Gateway Observations for Savannah International...

CITY           SKY/WX    TMP DP  RH WIND       PRES   REMARKS
Savannah Arpt  MOSUNNY   89  76  65 NW7       29.96F HX 100
Atlanta        PTSUNNY   85  75  72 W10       30.01S HX  93
Charlotte      CLOUDY    80  76  87 NW5       29.96R
Dallas DFW     CLOUDY    84  74  71 S9        29.88R HX  91
Houston Bush   PTSUNNY   90  72  55 SW12G17   29.93R HX  97
Wash National  LGT RAIN  77  76  96 S5        29.90F
Wash Dulles    LGT RAIN  71  71 100 N3        29.91F FOG
Baltimore      LGT RAIN  75  75 100 CALM      29.89F FOG
Philadelphia   CLOUDY    76  72  87 E5        29.92R
Newark         CLOUDY    74  68  81 SE7       29.92F
Laguardia      CLOUDY    75  70  84 VRB6      29.92S
J F K          CLOUDY    74  71  91 SE9       29.93F
Boston         CLOUDY    78  66  66 S10       29.91F
Pittsburg      PTSUNNY   78  65  63 CALM      29.93S
Akron          MOSUNNY   82  63  52 W7        29.93S
Cleveland      MOSUNNY   84  66  54 W8        29.92R
Cincinnati     MOSUNNY   80  70  71 W7        29.95R
Columbus       MOSUNNY   80  70  70 NW3       29.93S
Detroit        PTSUNNY   73  67  81 VRB3      29.92R
Chicago O`Hare PTSUNNY   80  62  54 NE5       29.92R
Minneapolis    PTSUNNY   67  57  70 SE6       29.99S
Indianapolis   PTSUNNY   80  67  64 W6        29.95R
Toronto Canada PTSUNNY   73  64  73 NW7       29.86S

$$




USA.gov is the U.S. government's official web portal to all federal, state and local government web resources and services.